Terug naar catalogus

FENGYUN 1C DEB

ActiefSSO
NORAD 31544·DEBRIS·🇨🇳 China

Gelanceerd May 10, 1999 vanaf Taiyuan Satellite Launch Center

Loading…

Volgende Passages (komende 24 uur)

TLE

VersSource: Space-Track

Epoch: Sep 13, 2026, 02:04 UTC

1 31544U 99025BYK 26256.08612527  .00000735  00000-0  40080-3 0  9994
2 31544  98.8017 308.8622 0032165 206.6469 153.3052 14.14964042996368

Volg FENGYUN 1C DEB in realtime met AllMySat

Download on the App Store